sat.trackr.live / text

‹ back to catalog

STARLINK-30771

NORAD 58169 · 2023-166V

PAYLOAD ACTIVE UNKNOWN

§ Identity

Operator
Country
US
Launch date
2023-10-29
Launch site
AFWTR
Launch vehicle
Mass (kg)
RCS (m²)

Purposes: comms

External: N2YO · Heavens-Above · Gunter

§ Orbital elements

Epoch: 2026-05-24T16:05:03.482016Z

Period
94.11 min
Inclination
53.1606°
Eccentricity
0.0000905
Mean motion
15.30185227 rev/d
Perigee alt
474.6 km
Apogee alt
475.9 km
Semi-major
6,853.4 km
B*
1.2223e-6
RAAN
226.5942°
Arg perigee
102.9042°
Mean anomaly
257.2060°
Rev number
14,481

§ Raw data

STARLINK-307711 58169U 23166V   26144.67017919 -.00000323  00000+0  12223-5 0  99972 58169  53.1606 226.5942 0000905 102.9042 257.2060 15.30185227144818

JSON: /api/v1/satellites/58169 · /tle

For live sub-satellite position, see the globe view (requires WebGL).

§ Visibility from observer

Set your observer location to see the next 7 days of passes ≥ 10°. The values pass through the URL so the page stays shareable.

No JS? Fill the form by hand. The geolocation button needs JavaScript.